Flag Weather past 2 weeks in Mabalacat, Philippines

Now
81 °F

Passing clouds.


Feels Like: 83 °F
Forecast: 72 / 89 °F
Wind: 1 mph from South

Location: Clarkfield Pampanga International Airport

Current Time: Oct 30, 2014 at 8:34:42 PM

Latest Report: Oct 30, 2014 at 8:00 PM


Visibility: N/A

Pressure: 29.92 "Hg

Humidity: 66%

Dew point: 68 °F

Location of MabalacatLocation

Historic Weather in Mabalacat — Graph

°F

Mabalacat temperature yesterday

Maximum temperature yesterday: 77 °F (at 5:00 PM)
Minimum temperature yesterday: 77 °F (at 5:00 PM)
Average temperature yesterday: 77 °F

Past Weeks' High & Low Weather Summary

 TemperatureHumidityPressure
High102 °F (Oct 20, 4:00 PM)100% (Oct 20, 5:00 AM)30.04 "Hg (Oct 20, 5:00 AM)
Low73 °F (Oct 16, 2:00 AM)45% (Oct 20, 4:00 PM)29.83 "Hg (Oct 19, 3:00 PM)
Average81 °F77%29.91 "Hg
* Reported Oct 15 4:00 PM — Oct 30 4:00 PM, Mabalacat, Weather by CustomWeather, © 2014

Note: Actual official high and low records may vary slightly from our data, if they occured in-between our weather recording intervals... More about our weather records

Advertising

Mabalacat weather history for previous 24 hours

 ConditionsComfort  
Time TempWeatherWind HumidityBarometerVisibility
4:00 PM
Oct 30
90 °FScattered clouds.5 mph46%29.83 "HgN/A
3:00 PM90 °FScattered clouds.5 mph46%29.83 "HgN/A
12:00 PM88 °FPartly sunny.2 mph49%29.89 "HgN/A
11:00 AM86 °FPartly sunny.6 mph55%29.92 "HgN/A
10:00 AM84 °FPartly sunny.7 mph58%29.95 "HgN/A
9:00 AM82 °FPartly sunny.6 mph62%29.95 "HgN/A
8:00 AM79 °FPartly sunny.5 mph70%29.92 "HgN/A
7:00 AM75 °FPartly sunny.5 mph78%29.92 "HgN/A
6:00 AM73 °FPartly sunny.7 mph83%29.92 "HgN/A
5:00 AM75 °FPartly cloudy.9 mph78%29.89 "Hg5 mi
4:00 AM75 °FPartly cloudy.6 mph78%29.89 "Hg5 mi
3:00 AM75 °FPartly cloudy.8 mph78%29.89 "Hg5 mi
2:00 AM77 °FPartly cloudy.7 mph74%29.92 "HgN/A
12:00 AM75 °FMostly cloudy.7 mph83%29.92 "HgN/A
11:00 PM
Oct 29
77 °FPartly cloudy.9 mph83%29.92 "HgN/A
10:00 PM77 °FPassing clouds.5 mph83%29.95 "HgN/A
9:00 PM77 °FPassing clouds.7 mph83%29.95 "HgN/A
8:00 PM77 °FPartly cloudy.2 mph89%29.92 "HgN/A
Weather by CustomWeather, © 2014

See weather overviewHow to use our weather pages